Showing default

ALISIO-1, 58562

Orbit data source: Space-Track

ALISIO-1, 58562 is a payload satellite owned by IAC (ES) in SSO that was launched on Fri, 01 Dec 2023 UTC via an FALCON 9 launch vehicle from the Air Force Western Test Range (AFWTR). Payload-class satellites include a variety of spacecraft equipped with specific instruments for various scientific and technological missions. These include communications satellites like Starlink; space stations such as the ISS; scientific satellites like the Hubble; Earth observation satellites from companies like Planet Labs, Umbra, and HawkEye 360; GPS; miniature CubeSats for education and research; and military/defense satellites.

Loading next visibility...
Identifier
58562, 2023-185M
Orbit
SSO
Country
Flag of ESES / SPN
Related business
Manufacturer
IAC
Mission
Operational Amateur Imaging
Bus & Motor
CUBESAT 6U, Unknown motor
Mass
10 kg wet, 10 kg dry
Launch date (UTC)
2023-12-01 (3 years ago)
Launch vehicle
FALCON 9
Launch site
Air Force Western Test Range (AFWTR)
Object type
Payload
Rocket body
Debris
Shape & HBR
Box, 0.1 m
Radar Cross Section
0.080 m², Medium (>0.1 m² and < 1m²)

Expand to show TLE details & history
Last TLE update: 1 week ago

TLE from 1 week ago
0 ALISIO-1
1 58562U 23185M   26155.25928705  .00004084  00000-0  21028-3 0  9994
2 58562  97.5369 228.6820 0006333  16.0760 344.0673 15.16966541136595
Epoch: 2026-06-04T06:13Z
TLE epoch observation values (Epoch: 2026-06-04T06:13:22.401Z)
Latitude
0.00001°
Longitude
-117.36746°
Altitude
513.899 km
Speed
7.609 km/s
True Right ascension
15h 14m 43s
True Declination
0° 00' 00"
Sunlit
Object was in full shadow at epoch
Visualization orbit readout
Latitude
Unknown
Longitude
Unknown
Altitude
Unknown
Speed
Unknown
Apparent Right ascension
Unknown
Apparent Declination
Unknown
Sunlit
N/A
Visualization observer readout
Local Sidereal Time
06:17:51
Azimuth
Unknown
Elevation
Unknown
Doppler factor
Unknown
Orbital elements
Apogee altitude
516.354 km
Perigee altitude
507.627 km
Semi-major axis
6,890.127 km
Eccentricity
0.00063
Inclination
97.5369°
RAAN
228.682°
Arg. of periapsis
16.076°
True anomaly
344.04736°
Mean anomaly
344.0673°
Eccentric anomaly
344.05733°
Mean motion
3.79492 °/min
Orbital period
94.86 mins
BSTAR
0.00021028
Loading maneuver chart data...
Computing Atmospheric mass density...
Loading historical data...
Loading historical data...
Loading historical data...
Loading historical data...
Loading historical data...
Loading historical data...
Loading historical data...

Documentation

Showing up to 5 results
|